Location: Mesa
(33.4220°N, 111.8220°W)
Time: 00:23:06
(UTC-07:00)

N. Korean satellite - Pass Details

Date: 20 November 2019
Orbit: 455 x 507 km, 97.2° (Epoch: 15 December)

Event Time Altitude Azimuth Distance (km) Brightness Sun altitude
Rises 18:41:44 0° 213° (SSW) 2,548 11.0 -16.6°
Reaches altitude 10° 18:45:12 10° 249° (WSW) 1,687 10.6 -17.3°
Maximum altitude 18:46:19 11° 267° (W) 1,621 10.4 -17.5°
Drops below altitude 10° 18:47:26 10° 286° (WNW) 1,699 10.3 -17.7°
Sets 18:50:59 0° 322° (NW) 2,599 10.6 -18.4°
